FW1966 Weather Reports


time (UTC)temp
C
wind
direction
speed
KPH
gust
KPH
rain 1hr
cm
rain 24hr
cm
rain mn
cm
humidity
%
barometer
mb
20260504050010 16 69 0.0 6.4 0.00 0.00 0.00 65 1010.3
20260504044509 17 294 1.6 12.9 0.00 0.00 0.00 59 1010.3
20260504043038 17 315 0.0 12.9 0.00 0.00 0.00 60 1010.2
20260504041638 17 345 1.6 14.5 0.00 0.00 0.00 58 1010.3
20260504040034 17 37 1.6 8.0 0.00 0.00 0.00 59 1010.4
20260504034541 17 351 1.6 9.7 0.00 0.00 0.00 61 1010.5
20260504033032 17 304 0.0 8.0 0.00 0.00 0.00 65 1010.5
20260504031527 17 192 0.0 8.0 0.00 0.00 0.00 63 1010.6
20260504030034 17 278 0.0 6.4 0.00 0.00 0.00 67 1010.8
20260504024520 16 313 4.8 16.1 0.00 0.00 0.00 64 1010.8
20260504023017 17 204 1.6 6.4 0.00 0.00 0.00 69 1011.0
20260504021514 16 17 1.6 9.7 0.00 0.00 0.00 70 1011.3
20260504020114 16 341 0.0 12.9 0.00 0.00 0.00 68 1011.7
20260504014543 16 305 1.6 12.9 0.00 0.00 0.00 69 1011.9
20260504013039 16 310 3.2 11.3 0.00 0.00 0.00 69 1012.1
20260504011533 16 288 0.0 11.3 0.00 0.00 0.00 72 1012.2
20260504010031 15 160 3.2 11.3 0.00 0.00 0.00 73 1012.3
20260504004529 15 34 0.0 1.6 0.00 0.00 0.00 81 1012.1
20260504003025 14 36 0.0 9.7 0.00 0.00 0.00 82 1012.1
20260504001607 13 359 3.2 14.5 0.00 0.00 0.00 82 1012.0
20260504000051 13 54 0.0 3.2 0.00 0.00 0.00 85 1012.0
20260503234543 12 48 0.0 0.0 0.00 0.00 0.00 80 1012.3
20260503233039 11 303 0.0 1.6 0.00 0.00 0.00 81 1012.4
20260503231546 10 230 0.0 4.8 0.00 0.00 0.00 82 1012.3
20260503230036 10 342 0.0 1.6 0.00 0.00 0.00 82 1012.3
20260503224532 10 110 0.0 6.4 0.00 0.00 0.00 82 1012.5
20260503223029 9 79 0.0 3.2 0.00 0.00 0.00 82 1012.3
20260503221527 10 113 0.0 3.2 0.00 0.00 0.00 82 1012.6
20260503220035 9 177 0.0 1.6 0.00 0.00 0.00 82 1012.7
20260503214524 -17 0.0 0.0 0.00 0.00 0.00 1012.7
20260503213024 -17 0.0 0.0 0.00 0.00 0.00 1012.8
20260503211519 -17 0.0 0.0 0.00 0.00 0.00 1012.7
20260503210016 -17 0.0 0.0 0.00 0.00 0.00 1012.7
20260503204502 -17 0.0 0.0 0.00 0.00 0.00 1012.7
20260503203114 -17 0.0 0.0 0.00 0.00 0.00 1012.4
20260503201554 -17 0.0 0.0 0.00 0.00 0.00 1012.3
20260503200051 -17 0.0 0.0 0.00 0.00 0.00 1012.4
20260503194521 -17 0.0 0.0 0.00 0.00 0.00 1012.3
20260503193011 -17 0.0 0.0 0.00 0.00 0.00 1012.3
20260503191506 -17 0.0 0.0 0.00 0.00 0.00 1012.6
20260503190101 -17 0.0 0.0 0.00 0.00 0.00 1012.7
20260503184621 -17 0.0 0.0 0.00 0.00 0.00 1012.9
20260503183054 -17 0.0 0.0 0.00 0.00 0.00 1013.0
20260503181517 -17 0.0 0.0 0.00 0.00 0.00 1013.0
20260503180025 -17 0.0 0.0 0.00 0.00 0.00 1013.2
20260503174517 -17 0.0 0.0 0.00 0.00 0.00 1013.1
20260503173001 -17 0.0 0.0 0.00 0.00 0.00 1012.9
20260503171557 -17 0.0 0.0 0.00 0.00 0.00 1012.9
20260503081536 15 48 0.0 0.0 0.00 0.00 0.00 80 1012.1
20260503071607 15 301 0.0 3.2 0.00 0.00 0.00 80 1011.6
20260503054553 16 34 0.0 3.2 0.00 0.00 0.00 79 1010.6
20260503053039 16 97 0.0 1.6 0.00 0.00 0.00 79 1010.5